Orbital Elements at Epoch 2459200.5 (2020-Dec-17.0) TDB
Reference: JPL 23 (heliocentric ecliptic J2000)
Element | Value | Uncertainty (1-sigma) | Units |
e | .07700104314545747 | 7.4895e-08 | |
a | 5.203580614801488 | 1.1135e-07 | au |
q | 4.802899479370293 | 4.155e-07 | au |
i | 18.55554502418916 | 8.1443e-06 | deg |
node | 195.0319766349291 | 1.2287e-05 | deg |
peri | 162.7168107803581 | 3.4112e-05 | deg |
M | 26.19897264751191 | 2.9132e-05 | deg |
tp | 2458884.975114185660 (2020-Feb-05.47511419) | 0.00035457 | TDB |
period | 4335.626454572052 11.87 | 0.00013917 3.81e-07 | d yr |
n | .08303298353121931 | 2.6653e-09 | deg/d |
Q | 5.604261750232684 | 1.1993e-07 | au |
|
| | Orbit Determination Parameters
Additional Information
|